Retour au catalogue

METEOR 2-7 DEB

LostPO
NORAD 59993·DEBRIS·🇷🇺 Russia

Lancé May 14, 1981 depuis Plesetsk Cosmodrome

Loading…

Prochains Passages (prochaines 24 heures)

TLE

PériméSource: Space-Track

Époque: Jun 29, 2026, 21:11 UTC

1 59993U 81043AB  26180.88269237  .00003436  00000-0  12011-2 0  9996
2 59993  81.2590  44.0807 0040312 326.2837  33.5784 14.34604378113797

Suivez METEOR 2-7 DEB en temps réel avec AllMySat

Download on the App Store